Location: Dal�� Lhota
(48.7500°N, 14.0167°E)
Time: 04:03:31
(UTC+00:00)

A-11 Canister half - All Passes

Search period start: 26 July 2021 00:00
Search period end: 05 August 2021 00:00
Orbit: 1527 x 1682 km, 47.3° (Epoch: 25 July)

Date Brightness Start Highest point End Pass type
(mag) Time Alt. Az. Time Alt. Az. Time Alt. Az.
26 Jul - 10:19:47 10° S 10:27:25 25° SE 10:34:56 10° E daylight
26 Jul - 12:21:17 10° SW 12:31:05 59° SSE 12:40:40 10° ENE daylight
26 Jul - 14:25:50 10° W 14:35:54 83° S 14:45:38 10° E daylight
26 Jul - 16:31:03 10° W 16:40:51 70° SSW 16:50:19 10° ESE daylight
26 Jul - 18:36:28 10° WNW 18:44:48 34° SW 18:52:54 10° SSE daylight
27 Jul - 09:58:25 10° S 10:05:49 24° SE 10:13:09 10° E daylight
27 Jul - 11:59:39 10° SW 12:09:26 57° SSE 12:19:00 10° ENE daylight
27 Jul - 14:04:08 10° W 14:14:13 83° S 14:23:58 10° E daylight
27 Jul - 16:09:20 10° W 16:19:12 71° SSW 16:28:42 10° ESE daylight
27 Jul - 18:14:44 10° WNW 18:23:13 35° SW 18:31:28 10° SSE daylight
28 Jul - 09:37:02 10° S 09:44:14 23° SE 09:51:22 10° E daylight
28 Jul - 11:38:01 10° SW 11:47:47 56° SSE 11:57:20 10° ENE daylight
28 Jul - 13:42:25 10° W 13:52:32 82° S 14:02:19 10° E daylight
28 Jul - 15:47:38 10° W 15:57:32 72° SSW 16:07:05 10° ESE daylight
28 Jul - 17:52:59 10° WNW 18:01:37 37° SW 18:10:00 10° SSE daylight
29 Jul - 09:15:41 10° S 09:22:39 21° SE 09:29:32 10° E daylight
29 Jul - 11:16:25 10° SW 11:26:08 54° SSE 11:35:40 10° ENE daylight
29 Jul - 13:20:44 10° WSW 13:30:51 82° S 13:40:39 10° E daylight
29 Jul - 15:25:56 10° W 15:35:52 74° SSW 15:45:27 10° ESE daylight
29 Jul - 17:31:16 10° WNW 17:40:01 38° SW 17:48:30 10° SSE daylight
29 Jul - 19:41:31 10° WSW 19:42:41 10° WSW 19:43:53 10° SW visible
30 Jul - 08:54:21 10° S 09:01:03 20° SE 09:07:43 10° E daylight
30 Jul - 10:54:48 10° SW 11:04:28 53° SSE 11:13:59 10° ENE daylight
30 Jul - 12:59:01 10° WSW 13:09:09 81° S 13:18:59 10° E daylight
30 Jul - 15:04:14 10° W 15:14:12 75° SSW 15:23:49 10° ESE daylight
30 Jul - 17:09:32 10° WNW 17:18:25 40° SW 17:27:01 10° SSE daylight
30 Jul - 19:18:33 10° WSW 19:21:09 11° WSW 19:23:45 10° SW visible
31 Jul - 08:33:04 10° SSE 08:39:29 19° SE 08:45:51 10° E daylight
31 Jul - 10:33:11 10° SW 10:42:50 51° SSE 10:52:19 10° ENE daylight
31 Jul - 12:37:19 10° WSW 12:47:28 81° S 12:57:20 10° E daylight
31 Jul - 14:42:31 10° W 14:52:32 76° SSW 15:02:12 10° ESE daylight
31 Jul - 16:47:48 10° WNW 16:56:48 42° SW 17:05:31 10° SSE daylight
31 Jul - 18:56:10 10° W 18:59:37 12° WSW 19:03:03 10° SW daylight
01 Aug - 08:11:48 10° SSE 08:17:54 18° SE 08:23:58 10° E daylight
01 Aug - 10:11:36 10° SW 10:21:11 49° SSE 10:30:38 10° ENE daylight
01 Aug - 12:15:38 10° WSW 12:25:47 80° S 12:35:40 10° E daylight
01 Aug - 14:20:49 10° W 14:30:51 77° SSW 14:40:34 10° ESE daylight
01 Aug - 16:26:05 10° WNW 16:35:11 43° SW 16:44:01 10° SSE daylight
01 Aug - 18:33:57 10° W 18:38:04 13° WSW 18:42:10 10° SSW daylight
02 Aug - 07:50:35 10° SSE 07:56:19 17° SE 08:02:02 10° E daylight
02 Aug - 09:50:01 10° SW 09:59:32 48° SE 10:08:56 10° ENE daylight
02 Aug - 11:53:56 10° WSW 12:04:05 79° SSE 12:14:00 10° E daylight
02 Aug - 13:59:06 10° W 14:09:10 78° SSW 14:18:55 10° ESE daylight
02 Aug - 16:04:22 10° WNW 16:13:34 45° SW 16:22:30 10° SSE daylight
02 Aug - 18:11:51 10° W 18:16:32 15° WSW 18:21:09 10° SSW daylight
03 Aug - 07:29:24 10° SSE 07:34:45 16° SE 07:40:05 10° E daylight
03 Aug - 09:28:26 10° SSW 09:37:54 46° SE 09:47:15 10° ENE daylight
03 Aug - 11:32:15 10° WSW 11:42:24 78° SSE 11:52:20 10° E daylight
03 Aug - 13:37:24 10° W 13:47:30 79° SSW 13:57:16 10° ESE daylight
03 Aug - 15:42:38 10° WNW 15:51:57 47° SW 16:00:58 10° SE daylight
03 Aug - 17:49:50 10° W 17:54:59 16° SW 18:00:04 10° SSW daylight
04 Aug - 07:08:17 10° SSE 07:13:11 15° ESE 07:18:05 10° E daylight
04 Aug - 09:06:53 10° SSW 09:16:15 45° SE 09:25:33 10° ENE daylight
04 Aug - 11:10:34 10° WSW 11:20:42 77° SSE 11:30:40 10° E daylight
04 Aug - 13:15:42 10° W 13:25:49 80° S 13:35:37 10° ESE daylight
04 Aug - 15:20:56 10° WNW 15:30:19 49° SW 15:39:25 10° SE daylight
04 Aug - 17:27:51 10° W 17:33:26 17° SW 17:38:55 10° SSW daylight
